Regional Weather Roundup
Issued by NWS

Home | Current Version | Previous Version | Graphics & Text | Print | Product List | Glossary On
Versions: 1 2 3 4 5 6 7 8 9 10 11 12 13 14 15 16 17 18 19 20 21 22 23 24 25 26 27 28 29 30 31 32 33 34 35 36 37 38 39 40 41 42 43 44 45 46 47 48 49 50
000
ASUS43 KIND 220509
RWRIN

WEATHER ROUNDUP FOR INDIANA
NATIONAL WEATHER SERVICE INDIANAPOLIS IN
100 AM EDT MON SEP 22 2014

NOTE: "FAIR" INDICATES FEW OR NO CLOUDS BELOW 12,000 FEET WITH NO
SIGNIFICANT WEATHER AND/OR OBSTRUCTIONS TO VISIBILITY.

* - STATION DOES NOT REPORT WEATHER SUCH AS PRECIPITATION OR FOG.

+ - STATION NOT QUALITY CONTROLLED BY THE NATIONAL WEATHER SERVICE.
    USE DATA WITH CAUTION...ESPECIALLY DEWPOINT AND RELATIVE
    HUMIDITY OBSERVATIONS.

INZ001>003-010>013-019-020-220600-
NORTHWEST INDIANA

CITY           SKY/WX    TMP DP  RH WIND       PRES   REMARKS
GARY /AIRPORT/ MOCLDY    58  49  72 N12G18    30.13R
KNOX *+        PTCLDY    49  46  88 N5        30.11R
LA PORTE +     PTCLDY    53  45  76 N10       30.12R
MICHIGAN CITY+ MOCLDY    54  43  66 N10G20    30.12R
MONTICELLO +   PTCLDY    49  48  97 NW5       30.11S
RENSSELAER +   CLEAR     50  50 100 CALM      30.13R
VALPARAISO     CLEAR     53  47  79 N3        30.12R

$$

LMZ046-743>745-220600-
SOUTHERN LAKE MICHIGAN

STATION/POSITION TIME  TEMP WIND        PRES
                       AIR  DIR/SP/G
                 (UTC) (F)  (DEG/KT/KT) (MB)
MICHIGAN CITY    0500   56  350/ 24/ 28   N/A

$$

INZ004-005-014>016-021>024-220600-
NORTH CENTRAL INDIANA

CITY           SKY/WX    TMP DP  RH WIND       PRES   REMARKS
GOSHEN         PTCLDY   N/A N/A N/A N9        30.10R
LOGANSPORT +   PTCLDY    50  46  87 CALM      30.11S
PERU/GRISSOM   CLEAR     52  52 100 N6        30.10S
ROCHESTER +    CLEAR     52  46  82 NW3       30.11R
SOUTH BEND     PTCLDY    52  44  74 N9        30.11R
WARSAW +       CLEAR     46  43  87 N6        30.11R

$$

INZ006>009-017-018-025>027-220600-
NORTHEAST INDIANA

CITY           SKY/WX    TMP DP  RH WIND       PRES   REMARKS
ANGOLA *+      CLOUDY    48  36  61 N8        30.08R
FORT WAYNE     PTCLDY    50  43  77 N13       30.09S
HUNTINGTON +   MOCLDY    50  46  87 N6        30.09S

$$

INZ028-029-035-036-043>045-051>053-220600-
WEST CENTRAL INDIANA

CITY           SKY/WX    TMP DP  RH WIND       PRES   REMARKS
GREENCASTLE +  CLOUDY    55  50  82 N6        30.12R
LAFAYETTE      CLEAR     53  49  86 N5        30.11S
TERRE HAUTE    CLEAR     57  51  80 N6        30.12R

$$

INZ030>032-037>040-046>048-054>057-064-065-220600-
CENTRAL INDIANA

CITY           SKY/WX    TMP DP  RH WIND       PRES   REMARKS
CP ATTERBURY + CLOUDY    54  52  94 CALM      30.11R
FRANKFORT +    CLEAR     52  52 100 N6        30.12S
INDIANAPOLIS   CLOUDY    57  48  72 N12       30.10R
-EAGLE CREEK   CLOUDY    56  48  74 N8        30.10R
KOKOMO *+      CLEAR     52  45  76 NW6       30.11R
MARION +       CLEAR     49  46  87 N5        30.10S
MT COMFORT *+  PTCLDY    54  46  76 N7        30.10S
SHELBYVILLE    MOCLDY    55  50  83 N3        30.09R
ZIONSVILLE +   PTCLDY    52  47  83 CALM      30.11S

$$

INZ033-034-041-042-049-050-058-059-220600-
EAST CENTRAL INDIANA

CITY           SKY/WX    TMP DP  RH WIND       PRES   REMARKS
MUNCIE         CLEAR     50  46  86 NW7       30.09S

$$

INZ060-061-067>069-081>083-085>088-220600-
SOUTHWEST INDIANA

CITY           SKY/WX    TMP DP  RH WIND       PRES   REMARKS
EVANSVILLE     CLEAR     59  50  72 N6        30.11S
WASHINGTON +   CLEAR     54  51  92 NW7       30.10S

$$

INZ062-063-066-070>080-084-089>092-220600-
SOUTH CENTRAL AND SOUTHEAST INDIANA

CITY           SKY/WX    TMP DP  RH WIND       PRES   REMARKS
BEDFORD +      PTCLDY    54  48  82 CALM      30.10R
BLOOMINGTON    MOCLDY    51  49  92 CALM      30.10S
SEYMOUR +      MOCLDY    55  50  82 CALM      30.09

$$



USA.gov is the U.S. government's official web portal to all federal, state and local government web resources and services.